Regional Weather Roundup
Issued by NWS

Home | Current Version | Previous Version | Graphics & Text | Print | Product List | Glossary On
Versions: 1 2 3 4 5 6 7 8 9 10 11 12 13 14 15 16 17 18 19 20 21 22 23 24 25 26 27 28 29 30 31 32 33 34 35 36 37 38 39 40 41 42 43 44 45 46 47 48 49 50
000
ASUS43 KMKX 252221
RWRWI

WISCONSIN REGIONAL WEATHER ROUNDUP
NATIONAL WEATHER SERVICE MILWAUKEE/SULLIVAN WI
500 PM CDT FRI JUL 25 2014

NOTE: "FAIR" INDICATES FEW OR NO CLOUDS BELOW 12,000 FEET WITH NO
SIGNIFICANT WEATHER AND/OR OBSTRUCTIONS TO VISIBILITY.

WIZ001-002-006>008-014>016-023>028-252300-
NORTHWEST WISCONSIN

CITY           SKY/WX    TMP DP  RH WIND       PRES   REMARKS
SUPERIOR ARPT  CLOUDY    64  59  86 NE5       29.79S
ASHLAND        CLOUDY    71  64  78 SW9       29.82S
HAYWARD        CLOUDY    69  65  86 S7        29.83S
SIREN          CLOUDY    74  66  77 S5        29.80S
RICE LAKE      CLOUDY    71  64  80 SE8       29.83F
LADYSMITH      CLOUDY    70  64  81 S5        29.87S
EAU CLAIRE     CLOUDY    75  66  73 SE8       29.82F
MENOMONIE      CLOUDY    76  68  74 SE8       29.82S
NEW RICHMOND   CLOUDY    75  67  74 S8        29.81R
OSCEOLA        CLOUDY    75  70  83 SE6       29.81S
$$

WIZ003>005-009-010-017-018-252300-
NORTH CENTRAL WISCONSIN

CITY           SKY/WX    TMP DP  RH WIND       PRES   REMARKS
WOODRUFF       CLOUDY    72  65  79 S10       29.86R
RHINELANDER    CLOUDY    66  61  84 SW10      29.88S
EAGLE RIVER      N/A     68  59  74 SW7       29.85F
LAND O LAKES   CLOUDY    69  61  75 SW6       29.87R
PHILLIPS       CLOUDY    66  63  91 S8        29.87R
TOMAHAWK       CLOUDY    64  61  87 CALM      29.88F
MEDFORD        CLOUDY    67  62  85 S8        29.88F
MERRILL        CLOUDY    67  63  87 SW6       29.88S
$$

WIZ029-030-035-036-043>047-252300-
CENTRAL WISCONSIN

CITY           SKY/WX    TMP DP  RH WIND       PRES   REMARKS
WAUSAU         CLOUDY    67  61  81 SW8       29.87F
MOSINEE        CLOUDY    66  63  88 SW7       29.90F
MARSHFIELD     CLOUDY    68  62  81 S8        29.88F
STEVENS POINT  CLOUDY    66  59  78 SW7       29.89F
WAUPACA        CLOUDY    73  60  65 SW7       29.90S
WAUTOMA        CLOUDY    72  61  68 SW10      29.90F
WISC RAPIDS    CLOUDY    70  61  73 SW9       29.90F
CAMP DOUGLAS   CLOUDY    70  64  82 S7        29.89F
$$

WIZ011>013-019>022-031-037>040-048>050-252300-
NORTHEAST WISCONSIN

CITY           SKY/WX    TMP DP  RH WIND       PRES   REMARKS
ANTIGO         CLOUDY    65  61  85 SW8       29.89F
STURGEON BAY   CLOUDY    68  57  68 S7        29.89F
GREEN BAY      CLOUDY    72  60  66 S14G22    29.89S
MANITOWOC      CLOUDY    72  59  63 S13       29.90F
APPLETON       CLOUDY    72  57  60 SW13      29.90F
CLINTONVILLE   CLOUDY    70  59  68 SW7       29.88F
OSHKOSH        MOSUNNY   72  60  66 SW13G20   29.89F
$$

WIZ032>034-041-042-053>061-252300-
SOUTHWEST WISCONSIN

CITY           SKY/WX    TMP DP  RH WIND       PRES   REMARKS
LA CROSSE      SUNNY     77  64  64 SE10      29.84F
SPARTA         CLOUDY    73  61  66 S7        29.87F
VIROQUA        CLOUDY    72  64  75 S6        29.88F
BOSCOBEL       CLOUDY    73  63  70 VRB5      29.88F
PRAIRIE DU CHI CLOUDY    75  63  64 E7        29.85F
PLATTEVILLE    CLOUDY    70  64  81 E9        29.90F
$$

WIZ056-057-062-063-064-067-068-252300-
SOUTH CENTRAL WISCONSIN

CITY           SKY/WX    TMP DP  RH WIND       PRES   REMARKS
BARABOO/DELLS  CLOUDY    70  59  67 S5        29.91S
LONE ROCK      CLOUDY    74  62  66 SE7       29.90S
WATERTOWN      CLOUDY    70  61  71 SW9       29.92S
MADISON        CLOUDY    71  61  70 S10       29.92F
MIDDLETON      CLOUDY    71  60  68 S6        29.92F
MONROE         CLOUDY    68  61  77 SE9       29.92F
JANESVILLE     CLOUDY    72  57  60 S9        29.92F
$$

WIZ051-052-058>065-066-070>072-252300-
SOUTHEAST WISCONSIN

CITY           SKY/WX    TMP DP  RH WIND       PRES   REMARKS
MILWAUKEE      PTSUNNY   75  57  53 SW12      29.93F
WAUKESHA       PTSUNNY   70  57  64 SW7       29.94F
MILWAUKEE/TIMM PTSUNNY   72  55  56 SW8       29.94F
RACINE         CLOUDY    72  58  61 SW6       29.94F
BURLINGTON     CLOUDY    74  60  61 S6        29.93S
KENOSHA        CLOUDY    74  59  59 SW12      29.93F
FOND DU LAC    PTSUNNY   72  59  63 SW14      29.91F
SHEBOYGAN      MOSUNNY   73  60  63 SW12      29.91F
WEST BEND      CLOUDY    70  55  60 S7        29.92F
JUNEAU         PTSUNNY   72  57  60 S13       29.93F
$$

LSZ147-162-252300-
LAKE SUPERIOR

STATION/POSITION TIME  TEMP    WIND        PRES    WAVE
                       AIR SEA DIR/SP/G            HT/PER
                 (UTC) (F)     (DEG/KT/KT) (MB)    (FT/S)
W MID LAKE BUOY  2150   59 51   CALM  /  2 1008.8R   1
PORT WING        2100   66      20/  1/  2 1009.1F
SAXON HARBOR     2100           CALM  /  3 1009.5R
$$

LMZ867-665-643>646-252300-
LAKE MICHIGAN

STATION/POSITION TIME  TEMP    WIND        PRES    WAVE
                       AIR SEA DIR/SP/G            HT/PER
                 (UTC) (F)     (DEG/KT/KT) (MB)    (FT/S)
N MID LAKE BUOY  2150   59 55  190/ 14/ 16 1011.8S   3/ 5
NORTHPORT PIER   2100   65     150/  8/ 12 1011.9F
KEWAUNEE LAKESHO 2200   56     180/ 14/ 15 1013.1F
SHEBOYGAN LAKESH 2200   63     160/ 17/ 18 1012.7F
PORT WASHINGTON  2100   67     180/  6/  9 1014.2
ATWATER BUOY     2200   63     130/  8     1014.2F
MILWAUKEE LAKESH 2200   67     130/  5/  6   N/A
S MID LAKE BUOY  2150   64 62  170/  8/  8 1014.0F   1/ 4
KENOSHA   LAKESH 2200   74     230/  9/ 15 1013.2F
$$

TC  - TEMPERATURE IN CELSIUS
VSB - VISIBILITY IN STATUTE MILES
WCI - WIND CHILL INDEX
HX  - HEAT INDEX



USA.gov is the U.S. government's official web portal to all federal, state and local government web resources and services.